STARLINK-32591, 61718

Orbit data source: Space-Track

STARLINK-32591, 61718 is a payload satellite owned by SpaceX/Seattle (US) in LEO that was launched on Wed, 30 Oct 2024 UTC via an FALCON 9 launch vehicle from the Air Force Eastern Test Range (AFETR). Payload-class satellites include a variety of spacecraft equipped with specific instruments for various scientific and technological missions. These include communications satellites like Starlink; space stations such as the ISS; scientific satellites like the Hubble; Earth observation satellites from companies like Planet Labs, Umbra, and HawkEye 360; GPS; miniature CubeSats for education and research; and military/defense satellites.

Loading next visibility...
Identifier
61718, 2024-196M
Orbit
LEO
Last TLE update
11 hours ago
Origin
Manufacturer
SpaceX/Seattle
Mission
Operational Commercial Communications
Bus & Motor
STARLINK V2M, Unknown motor
Mass
730 kg wet, ~700 kg dry
Launch date (UTC)
2024-10-30 (6 months ago)
Launch vehicle
FALCON 9
Launch site
Air Force Eastern Test Range (AFETR)
Object type
Payload
Rocket body
Debris
Shape & HBR
Box + 2 Pan, 29 m
Radar Cross Section
36.964 m², Large (>1 m²)

Expand to show TLE details & history

TLE from 11 hours ago
0 STARLINK-32591
1 61718U 24196M   25129.23453368  .00000744  00000-0  28593-4 0  9994
2 61718  53.1605  64.7782 0001523  77.2327 282.8848 15.39621427 30720
Epoch: 2025-05-09T05:37Z
Definitive object data (Epoch: 2025-05-09T05:37:43.709Z)
Latitude
-0.00005°
Longitude
113.05244°
Altitude
447.9 km
Speed
7.645 km/s
True Right ascension
04h 19m 06s
True Declination
0° 00' 00"
Sunlit
Object was in daylight at TLE epoch
Visualization TLE readout
Latitude
-13.39876°
Longitude
100.70253°
Altitude
450.915 km
Speed
7.642 km/s
Apparent Right ascension
06h 39m 42s
Apparent Declination
-51° 18' 07"
Sunlit
Object is in daylight
Visualization observer readout
Local Sidereal Time
00:38:12
Azimuth
133.628° SE
Elevation
-30.261°
Doppler factor
1
Orbital elements
Apogee altitude
448.525 km
Perigee altitude
446.446 km
Semi-major axis
6,825.622 km
Eccentricity
0.0001523
Inclination
53.1605°
RAAN
64.7782°
Arg. of periapsis
77.2327°
True anomaly
282.86779°
Mean anomaly
282.8848°
Eccentric anomaly
282.87629°
Mean motion
3.84884 °/min
BSTAR
0.000028593
Orbital period
93.53 mins
Loading maneuver chart data...
Loading SW <> Apogee altitude chart data...
Loading historical data...
Loading historical data...
Loading historical data...
Loading historical data...
Loading historical data...
Loading historical data...
Loading historical data...

STARLINK-32591 Visibility forecast

Observer location: undefined°, undefined°

Span
Click to sort rows by Start time (UTC) header in descending order
Start Az.
Max El. time (UTC)
Max El. Az.
Max El.
End time (UTC)
End Az.
4 mins2025-05-09 21:21:43.231Z173.088° S2025-05-09 21:23:43.231Z135.674° SSE18.176°2025-05-09 21:25:43.231Z92.88° ESE
5 mins2025-05-09 22:58:43.231Z257.531° W2025-05-09 23:00:43.231Z306.967° NW34.447°2025-05-09 23:03:43.231Z35.484° NE
4 mins2025-05-10 03:54:43.231Z355.087° N2025-05-10 03:55:43.231Z18.489° NNE20.248°2025-05-10 03:58:43.231Z78.577° E
5 mins2025-05-10 05:31:43.231Z292.734° NW2025-05-10 05:33:43.231Z207.858° SW39.008°2025-05-10 05:36:43.231Z146.365° SSE
|